TimeCDT,TemperatureF,Dew PointF,Humidity,Sea Level PressureIn,VisibilityMPH,Wind Direction,Wind SpeedMPH,Gust SpeedMPH,PrecipitationIn,Events,Conditions,WindDirDegrees,DateUTC
12:55 AM,30.2,24.8,80,30.35,10.0,Calm,Calm,-,N/A,,Clear,0,2013-03-27 05:55:00
1:55 AM,30.2,26.6,86,30.35,10.0,Calm,Calm,-,N/A,,Clear,0,2013-03-27 06:55:00
2:55 AM,30.2,26.6,86,30.35,10.0,Calm,Calm,-,N/A,,Clear,0,2013-03-27 07:55:00
3:15 AM,30.2,26.6,86,30.35,10.0,Calm,Calm,-,N/A,,Clear,0,2013-03-27 08:15:00
3:35 AM,30.2,26.6,86,30.36,10.0,Calm,Calm,-,N/A,,Clear,0,2013-03-27 08:35:00
3:55 AM,30.2,26.6,86,30.34,10.0,Calm,Calm,-,N/A,,Clear,0,2013-03-27 08:55:00
4:15 AM,28.4,26.6,93,30.36,10.0,Calm,Calm,-,N/A,,Clear,0,2013-03-27 09:15:00
4:35 AM,28.4,26.6,93,30.37,10.0,Calm,Calm,-,N/A,,Clear,0,2013-03-27 09:35:00
4:55 AM,26.6,24.8,93,30.36,10.0,Calm,Calm,-,N/A,,Clear,0,2013-03-27 09:55:00
5:15 AM,26.6,24.8,93,30.36,10.0,Calm,Calm,-,N/A,,Clear,0,2013-03-27 10:15:00
5:35 AM,26.6,24.8,93,30.36,10.0,Calm,Calm,-,N/A,,Clear,0,2013-03-27 10:35:00
5:55 AM,26.6,24.8,93,30.37,10.0,Calm,Calm,-,N/A,,Clear,0,2013-03-27 10:55:00
6:55 AM,26.6,26.6,100,30.39,10.0,Calm,Calm,-,N/A,,Clear,0,2013-03-27 11:55:00
7:55 AM,28.4,26.6,93,30.39,10.0,Calm,Calm,-,N/A,,Partly Cloudy,0,2013-03-27 12:55:00
8:55 AM,39.2,30.2,70,30.41,10.0,Variable,3.5,-,N/A,,Partly Cloudy,0,2013-03-27 13:55:00
9:55 AM,44.6,30.2,57,30.42,10.0,WSW,8.1,-,N/A,,Partly Cloudy,240,2013-03-27 14:55:00
10:55 AM,48.2,30.2,50,30.42,10.0,SW,9.2,-,N/A,,Partly Cloudy,230,2013-03-27 15:55:00
11:55 AM,50.0,28.4,43,30.41,10.0,SSW,5.8,-,N/A,,Partly Cloudy,210,2013-03-27 16:55:00
12:55 PM,53.6,28.4,38,30.39,10.0,West,5.8,-,N/A,,Scattered Clouds,270,2013-03-27 17:55:00
1:55 PM,55.4,32.0,41,30.38,10.0,West,6.9,-,N/A,,Mostly Cloudy,260,2013-03-27 18:55:00
2:55 PM,55.4,28.4,36,30.35,10.0,SW,6.9,-,N/A,,Mostly Cloudy,230,2013-03-27 19:55:00
3:55 PM,57.2,30.2,36,30.32,10.0,SW,6.9,-,N/A,,Mostly Cloudy,230,2013-03-27 20:55:00
4:55 PM,55.4,30.2,38,30.32,10.0,West,3.5,-,N/A,,Scattered Clouds,280,2013-03-27 21:55:00
5:55 PM,55.4,28.4,36,30.31,10.0,Calm,Calm,-,N/A,,Scattered Clouds,0,2013-03-27 22:55:00
6:55 PM,53.6,30.2,41,30.31,10.0,Calm,Calm,-,N/A,,Mostly Cloudy,0,2013-03-27 23:55:00
7:55 PM,48.2,30.2,50,30.31,10.0,Calm,Calm,-,N/A,,Mostly Cloudy,0,2013-03-28 00:55:00
8:55 PM,48.2,30.2,50,30.31,10.0,Calm,Calm,-,N/A,,Mostly Cloudy,0,2013-03-28 01:55:00
9:55 PM,44.6,33.8,66,30.31,10.0,Calm,Calm,-,N/A,,Mostly Cloudy,0,2013-03-28 02:55:00
10:55 PM,42.8,30.2,61,30.31,10.0,Calm,Calm,-,N/A,,Mostly Cloudy,0,2013-03-28 03:55:00
11:55 PM,42.8,33.8,70,30.32,10.0,Calm,Calm,-,N/A,,Scattered Clouds,0,2013-03-28 04:55:00